Weather History for Indianapolis, IN

Change the Weather History Date:

Friday, May 17, 2013

  Actual Average Record
Temperature  
Mean Temperature 71 °F 63 °F  
Max Temperature 79 °F 73 °F 90 °F (1962)
Min Temperature 63 °F 53 °F 36 °F (1973)
Degree Days  
Heating Degree Days 0 4  
Month to date heating degree days 69 99  
Since 1 July heating degree days 5362 5321  
Cooling Degree Days 6 2  
Month to date cooling degree days 42 24  
Year to date cooling degree days 51 39  
Growing Degree Days 21 (Base 50)    
Moisture  
Dew Point 62 °F    
Average Humidity 74    
Maximum Humidity 93    
Minimum Humidity 54    
Precipitation  
Precipitation 0.31 in 0.17 in 2.30 in (1943)
Month to date precipitation 2.24 2.78  
Year to date precipitation 20.57 15.13  
Snow  
Snow 0.00 in 0.00 in 0.00 in ()
Month to date snowfall 0.0 0.0  
Since 1 July snowfall 34.5 25.9  
Snow Depth 0.00 in    
Sea Level Pressure  
Sea Level Pressure 29.99 in    
Wind  
Wind Speed 6 mph (SSE)    
Max Wind Speed 26 mph    
Max Gust Speed 33 mph    
Visibility 9 miles    
Events Rain , Thunderstorm    
T = Trace of Precipitation, MM = Missing Value Source: NWS Daily Summary

Daily Weather History Graph

Daily Weather History Graph

Search for Another Location

Airport:

Trip Planner

Search our weather history database for the weather conditions in past years. The results will help you decide how hot, cold, wet, or windy it might be!

Date:

Astronomy

May. 17, 2013 Rise Set
Actual Time 6:28 AM EDT 8:55 PM EDT
Civil Twilight 5:58 AM EDT 9:25 PM EDT
Nautical Twilight 5:20 AM EDT 10:03 PM EDT
Astronomical Twilight 4:37 AM EDT 10:46 PM EDT
Moon 1:00 PM EDT (5/17) 1:47 AM EDT (5/17)
Length of Visible Light 15h 27m
Length of Day
14h 26m
Waxing Crescent, 45% of the Moon is Illuminated
May 17
Waxing Crescent
May 18
First Quarter
May 25
Full
May 31
Last Quarter
Jun 8
New

Hourly Weather History & Observations

Time (EDT) Temp. Dew Point Humidity Pressure Visibility Wind Dir Wind Speed Gust Speed Precip Events Conditions
12:54 AM 66.0 °F 61.0 °F 84% 29.96 in 10.0 mi Calm Calm - N/A   Mostly Cloudy
1:54 AM 64.0 °F 61.0 °F 90% 29.96 in 10.0 mi Calm Calm - N/A   Mostly Cloudy
2:54 AM 64.9 °F 62.1 °F 90% 29.97 in 8.0 mi SSE 3.5 mph - N/A   Overcast
3:54 AM 64.0 °F 62.1 °F 93% 29.96 in 9.0 mi SSE 4.6 mph - N/A   Overcast
4:54 AM 64.9 °F 61.0 °F 87% 29.97 in 10.0 mi SSW 5.8 mph - N/A   Overcast
5:54 AM 64.0 °F 61.0 °F 90% 29.98 in 10.0 mi SSE 3.5 mph - N/A   Overcast
6:54 AM 64.0 °F 61.0 °F 90% 29.99 in 8.0 mi Calm Calm - N/A   Overcast
7:54 AM 64.0 °F 62.1 °F 93% 30.01 in 6.0 mi South 3.5 mph - N/A   Partly Cloudy
8:54 AM 69.1 °F 62.1 °F 78% 30.01 in 8.0 mi Calm Calm - N/A   Scattered Clouds
9:54 AM 73.0 °F 63.0 °F 71% 30.02 in 10.0 mi SSE 4.6 mph - N/A   Mostly Cloudy
10:54 AM 73.0 °F 62.1 °F 68% 30.02 in 10.0 mi SE 4.6 mph - N/A   Mostly Cloudy
11:54 AM 75.9 °F 63.0 °F 64% 30.02 in 10.0 mi Variable 5.8 mph - N/A   Mostly Cloudy
12:54 PM 77.0 °F 62.1 °F 60% 30.01 in 10.0 mi SSE 8.1 mph - N/A   Mostly Cloudy
1:54 PM 78.1 °F 61.0 °F 56% 29.99 in 10.0 mi SE 4.6 mph - N/A   Mostly Cloudy
2:40 PM 78.8 °F 59.0 °F 51% 29.99 in 10.0 mi Calm Calm - N/A Thunderstorm Thunderstorm
2:54 PM 73.0 °F 61.0 °F 66% 29.98 in 10.0 mi WSW 26.5 mph 33.4 mph N/A Thunderstorm Thunderstorm
3:03 PM 69.8 °F 60.8 °F 73% 29.99 in 2.5 mi SW 15.0 mph - 0.00 in Rain , Thunderstorm Heavy Thunderstorms and Rain
3:08 PM 68.0 °F 62.6 °F 83% 30.00 in 4.0 mi SSW 13.8 mph 20.7 mph 0.00 in Rain , Thunderstorm Light Thunderstorms and Rain
3:54 PM 64.9 °F 61.0 °F 87% 30.02 in 3.0 mi WSW 8.1 mph - 0.11 in Rain , Thunderstorm Heavy Thunderstorms and Rain
4:54 PM 66.9 °F 64.0 °F 90% 29.99 in 10.0 mi ESE 8.1 mph - 0.20 in Rain , Thunderstorm Light Thunderstorms and Rain
5:04 PM 66.2 °F 64.4 °F 94% 29.99 in 6.0 mi SSE 10.4 mph - 0.00 in Rain Light Rain
5:54 PM 72.0 °F 63.0 °F 73% 29.97 in 10.0 mi SSE 10.4 mph - 0.00 in   Mostly Cloudy
6:54 PM 72.0 °F 64.9 °F 78% 29.98 in 10.0 mi SE 8.1 mph - N/A   Mostly Cloudy
7:54 PM 71.1 °F 64.0 °F 78% 30.00 in 10.0 mi SSE 6.9 mph - N/A   Overcast
8:54 PM 70.0 °F 64.0 °F 81% 30.01 in 10.0 mi SE 3.5 mph - N/A   Overcast
9:54 PM 66.9 °F 59.0 °F 76% 30.01 in 10.0 mi SE 3.5 mph - N/A   Overcast
10:54 PM 66.9 °F 59.0 °F 76% 30.02 in 10.0 mi ESE 4.6 mph - N/A   Overcast
11:54 PM 66.0 °F 62.1 °F 87% 30.03 in 10.0 mi ESE 5.8 mph - N/A   Overcast